QPF
0.06 0.05 0.04 0.04 0.04 0.03 0.03 0.03 0.03 0.04 0.05 0.06 0.07 0.07 0.06 0.05 0.05 0.03 0.02 0.02 0.03 0.03 0.04 0.04 0.06 0.07 0.08 0.07 0.07 0.09 0.10 0.10 0.10 0.10 0.10 0.08 0.07 0.07 0.06 0.05 0.05 0.06 0.08
0.05 0.04 0.03 0.02 0.02 0.01 0.02 0.03 0.04 0.04 0.05 0.07 0.08 0.08 0.05 0.05 0.05 0.05 0.04 0.03 0.03 0.03 0.04 0.05 0.05 0.06 0.07 0.08 0.08 0.06 0.07 0.08 0.08 0.07 0.08 0.08 0.09 0.07 0.05 0.04 0.05 0.05 0.06
0.06 0.04 0.03 0.02 0.01 0.02 0.02 0.03 0.04 0.04 0.05 0.05 0.06 0.06 0.06 0.05 0.06 0.05 0.04 0.03 0.04 0.05 0.06 0.06 0.05 0.07 0.07 0.08 0.08 0.07 0.07 0.07 0.06 0.07 0.08 0.09 0.09 0.08 0.06 0.04 0.05 0.06 0.06
0.04 0.02 0.02 0.02 0.02 0.01 0.01 0.02 0.03 0.03 0.05 0.06 0.05 0.06 0.05 0.05 0.05 0.05 0.05 0.05 0.05 0.06 0.06 0.06 0.06 0.05 0.06 0.07 0.08 0.06 0.07 0.08 0.07 0.09 0.08 0.08 0.08 0.10 0.09 0.07 0.06 0.06 0.05
0.02 0.02 0.01 0.01 0.01 0.01 0.00 0.01 0.02 0.03 0.04 0.05 0.04 0.05 0.04 0.04 0.04 0.04 0.05 0.05 0.05 0.05 0.06 0.07 0.07 0.07 0.06 0.07 0.07 0.07 0.08 0.08 0.09 0.10 0.08 0.08 0.10 0.11 0.11 0.09 0.08 0.07 0.06
0.03 0.03 0.02 0.01 0.01 0.01 0.01 0.01 0.01 0.03 0.04 0.04 0.03 0.04 0.03 0.03 0.03 0.03 0.04 0.04 0.04 0.05 0.05 0.05 0.05 0.05 0.06 0.06 0.06 0.05 0.06 0.08 0.08 0.08 0.09 0.11 0.12 0.11 0.10 0.09 0.09 0.08 0.06
0.03 0.02 0.02 0.02 0.01 0.01 0.01 0.01 0.01 0.02 0.03 0.03 0.03 0.04 0.03 0.03 0.03 0.03 0.04 0.04 0.05 0.05 0.04 0.04 0.05 0.05 0.07 0.08 0.06 0.04 0.04 0.05 0.06 0.08 0.10 0.11 0.11 0.12 0.11 0.10 0.09 0.08 0.06
0.01 0.01 0.01 0.02 0.02 0.02 0.01 0.01 0.01 0.01 0.02 0.02 0.03 0.04 0.04 0.03 0.03 0.04 0.04 0.05 0.05 0.04 0.04 0.04 0.05 0.05 0.06 0.07 0.07 0.05 0.05 0.05 0.06 0.06 0.08 0.09 0.09 0.09 0.09 0.09 0.09 0.08 0.06
0.00 0.00 0.01 0.01 0.02 0.02 0.01 0.01 0.02 0.02 0.02 0.02 0.02 0.02 0.02 0.03 0.04 0.04 0.04 0.05 0.04 0.04 0.04 0.04 0.05 0.06 0.05 0.06 0.06 0.06 0.05 0.06 0.07 0.07 0.06 0.06 0.05 0.06 0.06 0.06 0.07 0.08 0.06
0.00 0.00 0.00 0.01 0.01 0.02 0.02 0.02 0.02 0.03 0.03 0.03 0.02 0.01 0.02 0.03 0.03 0.03 0.03 0.03 0.04 0.04 0.04 0.06 0.07 0.09 0.08 0.07 0.08 0.07 0.07 0.06 0.06 0.07 0.05 0.05 0.04 0.05 0.05 0.05 0.05 0.06 0.07
0.00 0.00 0.01 0.01 0.01 0.01 0.01 0.01 0.01 0.02 0.02 0.02 0.02 0.02 0.02 0.03 0.03 0.04 0.06 0.07 0.07 0.08 0.09 0.10 0.09 0.09 0.08 0.07 0.07 0.06 0.06 0.06 0.06 0.07 0.07 0.06 0.06 0.06 0.05 0.06 0.05 0.06 0.06
0.01 0.01 0.01 0.01 0.01 0.01 0.02 0.01 0.02 0.02 0.02 0.01 0.01 0.02 0.02 0.03 0.04 0.05 0.07 0.08 0.08 0.07 0.07 0.07 0.06 0.06 0.05 0.04 0.04 0.04 0.05 0.05 0.05 0.07 0.08 0.06 0.06 0.06 0.06 0.06 0.05 0.05 0.06
0.01 0.01 0.01 0.01 0.02 0.01 0.01 0.01 0.02 0.02 0.01 0.01 0.01 0.02 0.03 0.04 0.05 0.05 0.06 0.06 0.05 0.04 0.04 0.04 0.03 0.03 0.03 0.03 0.03 0.04 0.04 0.05 0.06 0.06 0.07 0.06 0.06 0.06 0.06 0.05 0.04 0.04 0.05
0.01 0.01 0.01 0.01 0.01 0.01 0.01 0.01 0.01 0.01 0.01 0.01 0.01 0.02 0.03 0.04 0.04 0.04 0.05 0.04 0.04 0.03 0.03 0.02 0.02 0.02 0.02 0.01 0.02 0.03 0.05 0.06 0.06 0.06 0.07 0.07 0.06 0.06 0.06 0.05 0.05 0.04 0.04
0.01 0.01 0.01 0.01 0.01 0.01 0.01 0.01 0.01 0.02 0.01 0.01 0.01 0.01 0.03 0.03 0.03 0.03 0.03 0.03 0.03 0.03 0.03 0.03 0.03 0.03 0.03 0.02 0.02 0.03 0.04 0.05 0.04 0.04 0.04 0.05 0.05 0.04 0.05 0.04 0.04 0.04 0.04
0.01 0.01 0.01 0.02 0.02 0.02 0.01 0.01 0.01 0.02 0.02 0.01 0.01 0.01 0.01 0.01 0.02 0.03 0.03 0.04 0.04 0.04 0.05 0.04 0.04 0.03 0.03 0.02 0.02 0.03 0.04 0.04 0.03 0.03 0.03 0.03 0.03 0.03 0.02 0.02 0.02 0.03 0.03
0.01 0.01 0.01 0.01 0.02 0.02 0.02 0.01 0.01 0.01 0.02 0.02 0.01 0.01 0.01 0.02 0.03 0.03 0.04 0.05 0.05 0.05 0.05 0.05 0.03 0.03 0.03 0.02 0.02 0.02 0.03 0.04 0.03 0.02 0.02 0.02 0.02 0.02 0.02 0.02 0.02 0.02 0.03
0.00 0.00 0.01 0.01 0.01 0.01 0.01 0.02 0.02 0.01 0.01 0.02 0.02 0.01 0.01 0.01 0.02 0.02 0.04 0.05 0.05 0.04 0.04 0.03 0.03 0.04 0.03 0.02 0.01 0.01 0.01 0.02 0.02 0.01 0.01 0.02 0.02 0.02 0.02 0.02 0.02 0.02 0.02
0.00 0.00 0.00 0.00 0.00 0.00 0.01 0.02 0.03 0.02 0.01 0.01 0.01 0.01 0.01 0.01 0.02 0.02 0.03 0.05 0.05 0.03 0.03 0.03 0.04 0.04 0.04 0.03 0.01 0.01 0.02 0.02 0.01 0.01 0.01 0.01 0.02 0.03 0.02 0.03 0.03 0.02 0.02
0.00 0.00 0.00 0.00 0.01 0.01 0.01 0.02 0.03 0.03 0.02 0.01 0.01 0.01 0.01 0.01 0.02 0.02 0.04 0.05 0.05 0.03 0.03 0.03 0.04 0.04 0.05 0.03 0.02 0.01 0.01 0.01 0.01 0.02 0.02 0.02 0.01 0.02 0.02 0.03 0.04 0.03 0.03
0.00 0.00 0.01 0.01 0.01 0.01 0.02 0.02 0.03 0.03 0.03 0.03 0.02 0.02 0.02 0.02 0.03 0.03 0.04 0.05 0.04 0.04 0.04 0.04 0.04 0.05 0.05 0.03 0.02 0.02 0.02 0.01 0.02 0.03 0.03 0.03 0.02 0.01 0.02 0.03 0.03 0.04 0.04
0.00 0.00 0.01 0.01 0.01 0.03 0.02 0.02 0.03 0.03 0.03 0.03 0.02 0.02 0.02 0.02 0.02 0.03 0.04 0.04 0.05 0.05 0.04 0.05 0.06 0.06 0.05 0.02 0.01 0.02 0.02 0.02 0.03 0.03 0.03 0.03 0.03 0.02 0.02 0.02 0.03 0.04 0.05
0.00 0.00 0.01 0.01 0.01 0.03 0.03 0.03 0.03 0.04 0.03 0.02 0.02 0.02 0.02 0.02 0.02 0.03 0.05 0.05 0.05 0.04 0.04 0.05 0.06 0.05 0.04 0.03 0.01 0.02 0.02 0.02 0.02 0.02 0.02 0.03 0.03 0.03 0.02 0.02 0.03 0.05 0.05
0.00 0.00 0.01 0.01 0.01 0.01 0.02 0.03 0.03 0.03 0.03 0.03 0.03 0.03 0.02 0.01 0.02 0.03 0.03 0.03 0.03 0.03 0.03 0.04 0.04 0.04 0.03 0.02 0.01 0.01 0.01 0.01 0.01 0.01 0.01 0.02 0.02 0.02 0.03 0.04 0.04 0.04 0.04
0.00 0.00 0.00 0.01 0.01 0.01 0.02 0.02 0.03 0.02 0.03 0.03 0.03 0.03 0.02 0.01 0.01 0.02 0.01 0.01 0.02 0.03 0.03 0.02 0.03 0.03 0.03 0.02 0.01 0.01 0.01 0.01 0.01 0.01 0.01 0.01 0.01 0.01 0.02 0.04 0.04 0.05 0.05
0.00 0.00 0.01 0.01 0.01 0.02 0.02 0.03 0.03 0.03 0.04 0.04 0.03 0.03 0.02 0.02 0.02 0.01 0.01 0.02 0.02 0.01 0.00 0.00 0.00 0.01 0.01 0.01 0.01 0.00 0.00 0.00 0.00 0.00 0.01 0.02 0.02 0.02 0.02 0.03 0.04 0.05 0.06
MSLP
1003.95 1003.70 1003.48 1003.33 1003.32 1003.46 1003.78 1004.24 1004.82 1005.44 1006.05 1006.59 1007.04 1007.37 1007.61 1007.78 1007.92 1008.08 1008.28 1008.54 1008.86 1009.24 1009.68 1010.15 1010.65 1011.17 1011.71 1012.26 1012.82 1013.38 1013.92 1014.42 1014.86 1015.24 1015.53 1015.75 1015.89 1015.98 1016.03 1016.07 1016.12 1016.18 1016.28
1002.96 1002.80 1002.68 1002.63 1002.69 1002.88 1003.23 1003.72 1004.32 1004.98 1005.64 1006.24 1006.74 1007.14 1007.41 1007.58 1007.70 1007.79 1007.90 1008.06 1008.29 1008.59 1008.97 1009.42 1009.93 1010.48 1011.08 1011.70 1012.33 1012.96 1013.57 1014.14 1014.65 1015.08 1015.42 1015.68 1015.85 1015.96 1016.01 1016.03 1016.04 1016.05 1016.09
1002.03 1001.95 1001.91 1001.94 1002.06 1002.31 1002.69 1003.20 1003.83 1004.52 1005.21 1005.86 1006.42 1006.86 1007.16 1007.35 1007.43 1007.46 1007.48 1007.54 1007.66 1007.86 1008.16 1008.56 1009.06 1009.63 1010.27 1010.96 1011.67 1012.38 1013.07 1013.72 1014.31 1014.81 1015.22 1015.54 1015.76 1015.90 1015.97 1015.99 1015.98 1015.96 1015.96
1001.25 1001.21 1001.23 1001.33 1001.52 1001.82 1002.24 1002.77 1003.41 1004.11 1004.83 1005.51 1006.11 1006.58 1006.90 1007.08 1007.14 1007.12 1007.06 1007.01 1007.03 1007.13 1007.35 1007.69 1008.15 1008.73 1009.40 1010.13 1010.92 1011.71 1012.49 1013.23 1013.90 1014.48 1014.97 1015.34 1015.62 1015.79 1015.88 1015.92 1015.90 1015.86 1015.82
1000.65 1000.63 1000.71 1000.88 1001.13 1001.48 1001.92 1002.47 1003.11 1003.81 1004.53 1005.22 1005.82 1006.31 1006.64 1006.83 1006.87 1006.81 1006.70 1006.57 1006.50 1006.51 1006.64 1006.92 1007.34 1007.91 1008.59 1009.37 1010.21 1011.08 1011.93 1012.75 1013.50 1014.15 1014.69 1015.11 1015.42 1015.63 1015.73 1015.76 1015.74 1015.69 1015.62
1000.24 1000.25 1000.37 1000.60 1000.91 1001.30 1001.78 1002.33 1002.96 1003.64 1004.33 1005.00 1005.60 1006.08 1006.43 1006.62 1006.66 1006.59 1006.45 1006.29 1006.16 1006.10 1006.17 1006.39 1006.77 1007.31 1007.98 1008.78 1009.65 1010.56 1011.48 1012.35 1013.14 1013.83 1014.40 1014.85 1015.17 1015.38 1015.49 1015.51 1015.48 1015.42 1015.34
1000.02 1000.05 1000.22 1000.50 1000.86 1001.30 1001.79 1002.34 1002.94 1003.58 1004.23 1004.86 1005.44 1005.91 1006.26 1006.47 1006.54 1006.49 1006.36 1006.19 1006.04 1005.96 1005.99 1006.16 1006.50 1007.00 1007.66 1008.44 1009.31 1010.23 1011.16 1012.04 1012.85 1013.55 1014.12 1014.55 1014.86 1015.05 1015.14 1015.15 1015.11 1015.04 1014.96
999.96 1000.01 1000.22 1000.55 1000.95 1001.41 1001.92 1002.45 1003.02 1003.61 1004.21 1004.79 1005.32 1005.78 1006.14 1006.37 1006.48 1006.48 1006.40 1006.28 1006.15 1006.08 1006.09 1006.24 1006.54 1007.00 1007.61 1008.36 1009.19 1010.08 1010.98 1011.83 1012.61 1013.27 1013.81 1014.21 1014.48 1014.64 1014.70 1014.70 1014.65 1014.59 1014.52
1000.00 1000.08 1000.32 1000.68 1001.12 1001.60 1002.11 1002.62 1003.15 1003.69 1004.22 1004.75 1005.24 1005.68 1006.04 1006.31 1006.47 1006.54 1006.54 1006.48 1006.42 1006.38 1006.41 1006.56 1006.83 1007.24 1007.80 1008.48 1009.24 1010.07 1010.89 1011.68 1012.38 1012.98 1013.46 1013.80 1014.03 1014.16 1014.20 1014.19 1014.16 1014.12 1014.10
1000.11 1000.21 1000.48 1000.86 1001.32 1001.81 1002.31 1002.80 1003.29 1003.77 1004.25 1004.71 1005.16 1005.57 1005.93 1006.23 1006.46 1006.61 1006.69 1006.73 1006.75 1006.78 1006.85 1007.00 1007.26 1007.63 1008.12 1008.71 1009.39 1010.11 1010.83 1011.52 1012.13 1012.65 1013.06 1013.35 1013.53 1013.64 1013.68 1013.69 1013.69 1013.70 1013.73
1000.24 1000.36 1000.64 1001.04 1001.50 1001.99 1002.48 1002.95 1003.40 1003.84 1004.26 1004.68 1005.08 1005.46 1005.81 1006.13 1006.40 1006.62 1006.80 1006.93 1007.04 1007.15 1007.28 1007.46 1007.71 1008.04 1008.47 1008.97 1009.54 1010.14 1010.75 1011.33 1011.84 1012.27 1012.61 1012.85 1013.02 1013.12 1013.18 1013.24 1013.30 1013.38 1013.48
1000.35 1000.48 1000.77 1001.17 1001.63 1002.11 1002.59 1003.05 1003.49 1003.89 1004.28 1004.64 1005.00 1005.34 1005.68 1006.00 1006.30 1006.57 1006.82 1007.03 1007.23 1007.42 1007.61 1007.83 1008.08 1008.39 1008.76 1009.18 1009.65 1010.14 1010.63 1011.10 1011.51 1011.87 1012.15 1012.36 1012.52 1012.64 1012.75 1012.87 1013.00 1013.16 1013.35
1000.43 1000.58 1000.86 1001.24 1001.69 1002.17 1002.65 1003.11 1003.54 1003.93 1004.29 1004.63 1004.94 1005.25 1005.56 1005.86 1006.16 1006.46 1006.75 1007.03 1007.30 1007.56 1007.81 1008.07 1008.34 1008.64 1008.96 1009.32 1009.69 1010.09 1010.48 1010.85 1011.18 1011.47 1011.71 1011.91 1012.08 1012.24 1012.40 1012.58 1012.80 1013.04 1013.31
1000.48 1000.62 1000.89 1001.25 1001.68 1002.16 1002.64 1003.12 1003.56 1003.97 1004.33 1004.65 1004.94 1005.21 1005.48 1005.75 1006.03 1006.33 1006.64 1006.95 1007.27 1007.58 1007.88 1008.18 1008.48 1008.77 1009.08 1009.38 1009.70 1010.01 1010.32 1010.61 1010.88 1011.12 1011.34 1011.54 1011.73 1011.92 1012.13 1012.38 1012.65 1012.96 1013.29
1000.50 1000.63 1000.87 1001.20 1001.61 1002.08 1002.58 1003.08 1003.56 1004.00 1004.38 1004.71 1004.99 1005.24 1005.47 1005.70 1005.95 1006.23 1006.53 1006.85 1007.19 1007.54 1007.88 1008.21 1008.53 1008.84 1009.13 1009.40 1009.67 1009.93 1010.18 1010.42 1010.64 1010.85 1011.05 1011.25 1011.46 1011.68 1011.92 1012.21 1012.52 1012.87 1013.23
1000.50 1000.60 1000.80 1001.09 1001.48 1001.94 1002.45 1002.99 1003.51 1004.00 1004.42 1004.78 1005.08 1005.32 1005.54 1005.74 1005.95 1006.20 1006.47 1006.78 1007.12 1007.48 1007.84 1008.20 1008.53 1008.85 1009.13 1009.40 1009.64 1009.86 1010.07 1010.27 1010.46 1010.65 1010.84 1011.04 1011.25 1011.49 1011.75 1012.04 1012.37 1012.72 1013.07
1000.52 1000.56 1000.69 1000.93 1001.27 1001.72 1002.24 1002.81 1003.39 1003.93 1004.42 1004.83 1005.17 1005.43 1005.65 1005.84 1006.03 1006.24 1006.48 1006.77 1007.09 1007.44 1007.81 1008.16 1008.50 1008.82 1009.10 1009.35 1009.57 1009.78 1009.96 1010.14 1010.32 1010.50 1010.68 1010.88 1011.08 1011.32 1011.57 1011.85 1012.15 1012.47 1012.80
1000.56 1000.52 1000.57 1000.72 1001.01 1001.42 1001.94 1002.53 1003.15 1003.76 1004.31 1004.79 1005.19 1005.50 1005.74 1005.94 1006.12 1006.32 1006.54 1006.80 1007.10 1007.42 1007.76 1008.10 1008.43 1008.73 1009.00 1009.24 1009.45 1009.64 1009.82 1009.99 1010.16 1010.33 1010.52 1010.71 1010.91 1011.13 1011.36 1011.60 1011.86 1012.13 1012.40
1000.67 1000.52 1000.46 1000.51 1000.71 1001.06 1001.54 1002.13 1002.78 1003.43 1004.06 1004.61 1005.08 1005.45 1005.75 1005.98 1006.18 1006.38 1006.58 1006.81 1007.08 1007.37 1007.67 1007.98 1008.27 1008.55 1008.80 1009.02 1009.22 1009.41 1009.58 1009.76 1009.93 1010.12 1010.30 1010.50 1010.69 1010.89 1011.10 1011.30 1011.51 1011.72 1011.92
1000.87 1000.59 1000.40 1000.33 1000.42 1000.68 1001.10 1001.65 1002.29 1002.97 1003.64 1004.26 1004.79 1005.24 1005.60 1005.88 1006.12 1006.33 1006.53 1006.75 1006.98 1007.23 1007.48 1007.75 1008.00 1008.24 1008.46 1008.67 1008.86 1009.05 1009.23 1009.42 1009.61 1009.81 1010.01 1010.21 1010.41 1010.60 1010.78 1010.95 1011.11 1011.26 1011.40
1001.17 1000.76 1000.43 1000.23 1000.20 1000.35 1000.67 1001.16 1001.76 1002.42 1003.10 1003.75 1004.33 1004.83 1005.25 1005.59 1005.87 1006.10 1006.31 1006.52 1006.73 1006.94 1007.16 1007.38 1007.59 1007.80 1007.99 1008.18 1008.37 1008.56 1008.76 1008.97 1009.19 1009.41 1009.63 1009.85 1010.05 1010.24 1010.40 1010.54 1010.66 1010.76 1010.85
1001.61 1001.08 1000.63 1000.30 1000.13 1000.15 1000.36 1000.73 1001.25 1001.85 1002.49 1003.13 1003.72 1004.25 1004.71 1005.09 1005.40 1005.66 1005.89 1006.09 1006.29 1006.48 1006.67 1006.85 1007.04 1007.22 1007.40 1007.59 1007.79 1007.99 1008.21 1008.44 1008.68 1008.93 1009.17 1009.41 1009.62 1009.80 1009.96 1010.08 1010.17 1010.24 1010.28
1002.18 1001.57 1001.02 1000.57 1000.29 1000.17 1000.24 1000.49 1000.87 1001.37 1001.92 1002.49 1003.04 1003.55 1004.00 1004.39 1004.72 1005.00 1005.24 1005.45 1005.65 1005.83 1006.01 1006.19 1006.37 1006.55 1006.74 1006.94 1007.15 1007.38 1007.62 1007.88 1008.15 1008.41 1008.66 1008.90 1009.11 1009.28 1009.43 1009.53 1009.60 1009.64 1009.66
1002.88 1002.23 1001.62 1001.11 1000.72 1000.48 1000.41 1000.50 1000.73 1001.06 1001.47 1001.92 1002.37 1002.81 1003.21 1003.56 1003.88 1004.15 1004.39 1004.62 1004.82 1005.02 1005.22 1005.42 1005.62 1005.83 1006.05 1006.28 1006.52 1006.78 1007.05 1007.32 1007.60 1007.86 1008.11 1008.33 1008.51 1008.67 1008.78 1008.86 1008.90 1008.92 1008.92
1003.68 1003.05 1002.44 1001.88 1001.43 1001.09 1000.88 1000.81 1000.86 1001.00 1001.23 1001.50 1001.80 1002.10 1002.39 1002.67 1002.93 1003.18 1003.41 1003.64 1003.86 1004.09 1004.32 1004.57 1004.82 1005.08 1005.35 1005.63 1005.92 1006.21 1006.50 1006.78 1007.05 1007.28 1007.49 1007.67 1007.80 1007.91 1007.97 1008.01 1008.03 1008.04 1008.03
1004.53 1003.96 1003.40 1002.85 1002.37 1001.96 1001.63 1001.40 1001.26 1001.20 1001.21 1001.27 1001.37 1001.49 1001.64 1001.79 1001.96 1002.15 1002.36 1002.58 1002.82 1003.08 1003.36 1003.66 1003.98 1004.31 1004.65 1004.99 1005.32 1005.65 1005.95 1006.22 1006.45 1006.64 1006.78 1006.88 1006.94 1006.97 1006.97 1006.96 1006.94 1006.93 1006.92
Thickness
5785 5784 5780 5777 5772 5767 5763 5759 5755 5752 5749 5744 5741 5737 5734 5733 5731 5729 5727 5723 5720 5717 5715 5713 5711 5709 5707 5706 5705 5703 5700 5699 5700 5697 5696 5700 5704 5705 5706 5706 5705 5705 5706
5779 5777 5775 5773 5768 5763 5760 5756 5752 5749 5746 5742 5739 5736 5733 5730 5728 5726 5723 5720 5717 5714 5713 5709 5707 5706 5703 5702 5700 5698 5695 5695 5695 5691 5688 5687 5692 5697 5702 5700 5700 5700 5700
5775 5773 5770 5768 5765 5760 5757 5754 5750 5747 5744 5741 5737 5734 5730 5726 5722 5720 5718 5716 5714 5711 5709 5706 5704 5702 5700 5697 5696 5694 5691 5689 5690 5690 5685 5680 5679 5685 5691 5694 5694 5694 5693
5777 5772 5767 5764 5761 5759 5756 5752 5747 5744 5741 5738 5733 5728 5723 5719 5717 5715 5714 5712 5710 5708 5706 5704 5701 5698 5696 5693 5692 5691 5688 5686 5684 5685 5685 5683 5680 5675 5677 5682 5686 5688 5687
5775 5770 5765 5761 5759 5757 5754 5750 5745 5740 5737 5734 5730 5725 5721 5718 5715 5713 5710 5708 5707 5705 5703 5701 5697 5694 5692 5690 5688 5686 5685 5683 5681 5680 5679 5679 5677 5676 5670 5669 5674 5677 5680
5772 5768 5764 5760 5755 5753 5750 5747 5740 5736 5734 5730 5726 5722 5717 5714 5710 5707 5705 5704 5702 5701 5700 5698 5694 5691 5688 5686 5684 5683 5682 5680 5679 5677 5675 5673 5670 5669 5667 5665 5667 5668 5671
5767 5762 5758 5754 5751 5747 5744 5740 5736 5731 5729 5725 5721 5718 5715 5712 5707 5705 5702 5700 5698 5696 5695 5694 5691 5688 5685 5684 5682 5680 5679 5677 5675 5673 5672 5670 5669 5668 5665 5662 5662 5663 5666
5764 5760 5755 5750 5746 5742 5739 5735 5731 5727 5724 5721 5717 5714 5712 5708 5706 5703 5700 5698 5696 5694 5693 5691 5688 5686 5683 5681 5679 5677 5676 5674 5672 5671 5669 5666 5665 5664 5662 5660 5657 5656 5658
5760 5756 5751 5747 5742 5737 5734 5730 5727 5723 5720 5717 5714 5711 5708 5705 5702 5700 5697 5695 5693 5692 5689 5687 5684 5682 5680 5678 5676 5674 5672 5671 5669 5667 5665 5662 5661 5660 5660 5658 5656 5651 5649
5754 5751 5746 5742 5738 5734 5730 5728 5723 5720 5717 5714 5711 5708 5705 5702 5699 5696 5692 5690 5688 5687 5685 5682 5680 5678 5677 5675 5672 5670 5669 5666 5664 5663 5660 5658 5657 5656 5656 5655 5654 5651 5647
5749 5745 5741 5738 5734 5730 5726 5723 5720 5716 5713 5710 5707 5704 5701 5698 5695 5691 5689 5686 5684 5682 5680 5678 5676 5674 5673 5671 5668 5666 5665 5663 5661 5659 5657 5654 5653 5651 5651 5650 5649 5647 5645
5745 5741 5737 5733 5728 5724 5721 5717 5715 5712 5709 5706 5702 5699 5696 5692 5689 5686 5684 5682 5680 5678 5676 5674 5672 5670 5668 5666 5664 5661 5660 5659 5657 5655 5653 5651 5651 5648 5647 5645 5644 5643 5642
5739 5735 5731 5725 5721 5718 5715 5712 5710 5707 5705 5701 5696 5693 5690 5687 5684 5682 5679 5677 5675 5673 5671 5669 5667 5665 5664 5662 5660 5657 5656 5654 5653 5651 5649 5648 5646 5644 5643 5641 5639 5638 5638
5733 5728 5722 5718 5715 5712 5710 5707 5705 5702 5700 5696 5692 5687 5684 5682 5680 5678 5675 5673 5671 5668 5666 5664 5663 5661 5659 5657 5655 5653 5651 5650 5648 5647 5646 5644 5642 5640 5638 5636 5634 5633 5631
5725 5721 5716 5712 5709 5705 5703 5702 5700 5698 5696 5692 5688 5684 5682 5679 5676 5674 5671 5669 5666 5664 5662 5660 5658 5656 5654 5652 5650 5648 5647 5644 5643 5642 5641 5640 5638 5636 5633 5631 5628 5626 5623
5720 5717 5712 5708 5704 5701 5698 5696 5695 5693 5691 5687 5683 5681 5678 5675 5672 5669 5666 5663 5661 5658 5656 5654 5652 5651 5649 5646 5644 5642 5641 5639 5638 5636 5636 5635 5633 5631 5628 5625 5622 5620 5617
5717 5712 5708 5704 5700 5698 5695 5691 5690 5688 5685 5682 5680 5676 5673 5670 5667 5665 5662 5658 5655 5653 5650 5649 5647 5645 5643 5641 5639 5637 5636 5635 5634 5632 5631 5630 5630 5626 5623 5620 5617 5614 5612
5713 5709 5704 5701 5698 5695 5692 5689 5686 5683 5680 5678 5676 5673 5669 5666 5662 5659 5656 5653 5651 5648 5645 5644 5643 5641 5638 5636 5634 5633 5632 5631 5630 5628 5627 5625 5623 5621 5617 5615 5612 5609 5607
5710 5705 5702 5697 5693 5690 5687 5684 5681 5678 5676 5673 5671 5669 5666 5662 5658 5654 5651 5649 5647 5644 5642 5640 5639 5637 5634 5631 5630 5628 5628 5626 5625 5624 5623 5621 5617 5615 5611 5609 5606 5603 5601
5705 5700 5697 5693 5687 5684 5682 5678 5675 5673 5670 5669 5667 5665 5663 5658 5654 5651 5649 5646 5644 5642 5640 5637 5635 5633 5630 5627 5625 5623 5623 5622 5621 5619 5618 5615 5612 5608 5605 5602 5599 5596 5595
5700 5696 5691 5686 5682 5680 5677 5672 5670 5667 5667 5666 5663 5661 5658 5655 5652 5649 5646 5643 5641 5638 5636 5634 5632 5630 5628 5624 5621 5618 5617 5616 5615 5613 5612 5609 5605 5602 5599 5596 5593 5591 5589
5693 5690 5685 5681 5679 5676 5671 5667 5664 5664 5663 5661 5659 5656 5654 5652 5649 5645 5642 5640 5637 5634 5633 5631 5629 5627 5624 5620 5616 5613 5610 5608 5607 5606 5605 5602 5599 5596 5593 5591 5589 5587 5583
5686 5683 5679 5676 5673 5671 5668 5663 5662 5662 5660 5657 5654 5651 5649 5647 5645 5641 5639 5636 5633 5631 5630 5628 5625 5623 5620 5616 5612 5609 5606 5603 5601 5601 5599 5595 5593 5591 5588 5587 5585 5582 5580
5679 5676 5673 5669 5666 5665 5663 5661 5659 5658 5655 5652 5649 5647 5645 5642 5640 5638 5635 5632 5629 5627 5625 5623 5621 5618 5615 5611 5607 5605 5602 5599 5597 5595 5593 5591 5589 5587 5585 5584 5581 5579 5576
5672 5670 5666 5663 5661 5659 5658 5657 5655 5653 5650 5647 5644 5643 5642 5639 5636 5633 5629 5627 5623 5622 5619 5618 5615 5612 5609 5605 5601 5599 5597 5595 5592 5588 5588 5588 5586 5584 5583 5582 5580 5577 5573
5665 5662 5660 5658 5656 5654 5652 5651 5650 5648 5644 5642 5640 5639 5638 5636 5634 5630 5626 5622 5620 5617 5616 5613 5610 5608 5605 5602 5598 5595 5592 5589 5586 5584 5585 5585 5583 5581 5579 5577 5575 5573 5570